HAIYANG 2D

Satellite information

Favourite Embed

Satellite Type and Status

PAYLOADIN ORBIT

Key statistics

Satellite HAIYANG 2D at a glance.

Uptime

1670

Days in orbit

Revolutions

≈ 13.8

Per day

Orbit

LEO

Low Earth Orbit

Inclination

66.0

Latest

Satellite identification and parameters

Extended collection of information and parameters for HAIYANG 2D.

Object identification

Identified? True

Debris? False

Object name: HAIYANG 2D

International designator: 2021-043A

Object number (NORAD): 48621

Object ID (CCSDS): 48621

Country: PEOPLES REPUBLIC OF CHINA (PRC)

Current information (Y/N): Y

RCS size: LARGE

Orbital parameters

Period: 104.093 minutes

Inclination: 65.9996 deg

SMA: 7330.086 km

Apoapsis: 958.598 km

Periapsis: 945.304 km

RAAN: 49.8923 deg

Eccentricy: 0.00090682

Argument of periapsis: 280.3051 deg

Mean anomaly: 79.6995 deg

Mean motion: 13.83372642 rev/day

Mean motion (dot): 0.00000083 rev/day2

B* drag term: 0.00014885128 1/REarth

Two-line elements (TLE)

Creation date: Dec. 12, 2025, 10:14 a.m.

Reference frame: TEME

Reference center: EARTH

Epoch: Dec. 12, 2025, 8:06 a.m. UTC

TLE line 0: 0 HAIYANG 2D

TLE line 1: 1 48621U 21043A 25346.33816253 .00000083 00000-0 14885-3 0 9992

TLE line 2: 2 48621 65.9996 49.8923 0009068 280.3051 79.6995 13.83372642230700

Live tracking on map

Real-time ground track for satellite HAIYANG 2D.

In-orbit conjunctions

There are no conjunctions computed for HAIYANG 2D, at the moment. Check back to stay up to date, as we update our databases every day.

Go to all conjunctions

Associated space launch

Haiyang (Chinese: "Ocean"), abbreviated HY, is a marine remote sensing satellite series planned by China.

HAIYANG 2D was lifted into orbit during the mission ‘Long March 4B | Haiyang 2D’, on board a Long March 4B space rocket.

The launch took place on May 19, 2021, 4:03 a.m. from Launch Area 94 (SLS-2 / 603).

For more information about the launch, click the button.

Launch to space Long March 4B | Haiyang 2D
Long March 4B | Haiyang 2D

Agency: N/A

Status: Launch Successful

Launch date: May 19, 2021, 4:03 a.m. UTC

Rocket: Long March 4B

Launch pad: Launch Area 94 (SLS-2 / 603)

Location: Jiuquan Satellite Launch Center, People's Republic of China

...

Latest news about this satellite

News about space launch
China launches Haiyang-2D Oceanography Satellite from Jiuquan

A Chinese Long March 4B rocket took a Haiyang oceanography satellite to orbit early Wednesday morning. Liftoff from the Jiuquan Satellite Launch Center occurred approximately 12:03 PM local time (04:03 UTC) on 19 May.

News about space launch
Chinese Long March rocket launches oceanography satellite

A Long March 4B rocket successfully launched an oceanography satellite Wednesday from northwestern China, hours before officials at a different spaceport scrubbed the planned launch of a cargo ship to deliver supplies to the Chinese space station.


Newsletter sign-up

Weekly statistics, charts and insights to help you stay on top of the space industry.